Regional Weather Roundup
Issued by NWS

Home | Current Version | Previous Version | Text Only | Print | Product List | Glossary Off
Versions: 1 2 3 4 5 6 7 8 9 10 11 12 13 14 15 16 17 18 19 20 21 22 23 24 25 26 27 28

000
ASUS45 KCYS 302310
RWRWY

WYOMING REGIONAL WEATHER ROUNDUP
NATIONAL WEATHER SERVICE CHEYENNE WY
500 PM MDT MON MAY 30 2016

NOTE:  "FAIR" INDICATES FEW OR NO CLOUDS BELOW 12,000 FEET
WITH NO SIGNIFICANT WEATHER AND/OR OBSTRUCTIONS TO VISIBILITY.

WYZ001-310000-
YELLOWSTONE NATIONAL PARK

CITY           SKY/WX    TMP DP  RH WIND       PRES   REMARKS
LK YELLOWSTONE   N/A     54  19  25 VRB7G18   30.18S
W YELLOWSTONE  NOT AVBL

$$
WYZ002>013-054>058-071-098>099-310000-
NORTHERN WYOMING

CITY           SKY/WX    TMP DP  RH WIND       PRES   REMARKS
JACKSON        PTSUNNY   63  30  29 S14G21    30.12S
CODY           CLOUDY    54  41  62 N16G23    30.08R
GREYBULL       FAIR      66  36  32 N29G40    29.99R
WORLAND        FAIR      68  39  34 N21G33    29.98R
SHERIDAN       CLOUDY    52  47  83 NW15G26   30.09R
BUFFALO        LGT RAIN  53  42  66 NW26G39   30.07R
GILLETTE       LGT RAIN  52  48  86 NW17      30.02R
HULETT         HVY RAIN  61  46  59 NW16G23   30.00R
NEWCASTLE      FAIR      70  34  26 N14G23    29.93R

$$
WYZ014>020-022>026-101>103-310000-
CENTRAL WYOMING

CITY           SKY/WX    TMP DP  RH WIND       PRES   REMARKS
BIG PINEY      FAIR      65  29  25 NW20G25   30.13F
PINEDALE       FAIR      61  28  29 W18G26    30.13S
DUBOIS         FAIR      63  23  22 W20G31    30.08R
LANDER         FAIR      72  30  21 W16G25    29.97S
RIVERTON       FAIR      73  27  18 W22G28    29.98S
CASPER         FAIR      62  46  55 N6        29.99S
DOUGLAS          N/A    N/A N/A N/A MISG      29.96F

$$
WYZ021-027>030-104>119-310000-
SOUTHERN WYOMING

CITY           SKY/WX    TMP DP  RH WIND       PRES   REMARKS
EVANSTON       FAIR      65  33  30 W15       30.17F
KEMMERER         N/A     63  30  29 W20G32    30.16S
FORT BRIDGER   PTCLDY    66  32  28 NW23      30.18F
ROCK SPRINGS   FAIR      66  24  20 W21G33    30.09F
DIXON          FAIR      71  32  23 W15G21    30.08F
RAWLINS        FAIR      68  30  24 W22G30    30.05F
SARATOGA       FAIR      64  32  29 W16G22    30.07F
LARAMIE        FAIR      64  31  28 W13G23    30.06F
CHEYENNE       FAIR      58  50  75 SW8       30.02F
TORRINGTON     FAIR      67  51  56 W7        29.91F
PINE BLUFFS    MOCLDY    64  43  45 W6        29.98R

$$




USA.gov is the U.S. government's official web portal to all federal, state and local government web resources and services.